Tracking 33188 objects as of 10-Feb-2026
HD Live streaming from Space Station
objects crossing your sky now

STARLINK-34620

Track STARLINK-34620 now!
10-day predictions
STARLINK-34620 is classified as:


NORAD ID: 64803
Int'l Code: 2025-150P
Perigee: 577.6 km
Apogee: 580.8 km
Inclination: 70.0 °
Period: 96.1 minutes
Semi major axis: 6950 km
RCS: Unknown
Launch date: July 16, 2025
Source: United States (US)
Launch site: AIR FORCE WESTERN TEST RANGE (AFWTR)
Your satellite tracking list
Your tracking list is empty




NASA's NSSDC Master Catalog

Two Line Element Set (TLE):
1 64803U 25150P   26040.85668270  .00001803  00000-0  15883-3 0  9998
2 64803  70.0027 204.7859 0002336 255.7455 104.3444 14.98329612 32348
Source of the keplerian elements: AFSPC